Wind_Speed
21 22 20 18 18 15 13 12 11 11 11 10 9 8 9 9 8 8 8 7 7 8 8 8 9 8 9 9 10 11 11 11 11 12 13 14 14 14 14 14 15 15 15 16 16 17 17 15 13 11 10 10 9 8 7 6 6 7 8 8 9 9 9 9 8 7 8 9 10 12 12 11 10 11 11 10 10 10 9 9 11 11 9 8 8
21 21 20 20 20 18 15 15 13 12 11 10 10 9 10 11 10 9 9 8 8 9 10 10 9 9 9 10 11 12 12 12 12 13 13 14 15 15 15 15 15 15 15 15 16 17 17 17 15 13 12 11 11 10 8 7 7 7 8 9 10 10 10 9 7 6 6 7 9 10 11 10 9 9 9 9 9 8 8 8 10 9 8 7 7
21 21 21 21 22 20 18 17 15 13 12 11 11 11 11 11 10 9 10 9 9 10 11 11 11 11 11 11 12 13 13 13 13 14 15 16 15 15 16 16 16 16 16 16 16 16 16 17 17 15 14 14 13 11 9 7 8 8 9 9 10 11 9 8 7 6 6 6 7 8 9 9 8 9 9 9 9 7 8 8 9 8 7 7 6
22 24 23 23 23 22 21 19 17 15 15 14 14 13 12 11 11 10 10 10 10 11 11 11 12 12 12 11 12 13 13 13 13 14 15 16 15 15 16 16 16 16 16 16 16 16 16 17 16 16 15 16 14 12 10 9 9 9 10 10 11 10 8 7 6 5 5 5 5 6 7 7 7 8 8 9 8 7 8 8 9 8 7 6 6
24 25 25 25 24 23 23 22 20 18 17 17 16 14 13 12 12 12 11 11 11 12 12 11 12 13 12 11 11 12 12 12 12 12 13 14 14 15 15 16 16 16 16 16 16 16 17 17 16 16 16 16 14 12 11 11 10 11 10 10 10 9 8 7 5 5 5 5 5 5 6 7 6 7 8 8 7 7 8 8 8 9 8 6 6
24 24 26 27 26 25 25 24 22 21 20 19 17 16 15 14 15 15 13 13 13 13 13 12 12 12 12 11 11 11 12 11 11 11 12 12 13 14 15 15 15 15 16 16 16 16 17 17 16 16 17 17 15 13 12 11 11 12 11 10 9 8 8 7 5 5 5 5 5 5 7 7 6 6 8 8 7 7 7 6 7 8 8 6 5
24 23 24 26 27 26 26 26 24 21 20 19 19 18 17 17 17 16 15 14 14 15 15 14 13 13 13 12 11 11 11 11 11 12 12 12 13 14 16 16 16 16 16 16 17 17 17 17 16 17 17 17 16 14 13 12 12 12 11 10 9 8 8 7 6 4 4 5 5 5 7 6 5 6 8 7 7 8 7 6 6 7 7 7 6
21 21 22 23 25 27 27 25 23 21 19 20 20 18 19 19 18 17 15 14 14 15 16 15 14 14 14 14 12 11 11 11 12 12 12 13 14 15 15 16 16 16 16 16 17 18 18 17 17 17 16 16 16 15 15 14 13 13 11 10 9 9 9 8 6 4 3 5 5 5 6 6 5 5 6 7 7 7 7 7 7 7 6 6 7
17 19 21 21 23 25 25 24 22 20 20 20 20 19 20 20 19 17 16 15 14 15 16 16 15 15 16 15 13 12 11 12 12 12 12 13 14 14 14 15 15 15 16 16 17 18 19 18 18 18 17 16 16 16 16 16 15 14 12 11 10 10 9 8 6 5 4 5 4 3 4 5 5 4 5 7 8 7 6 6 5 6 6 5 7
15 16 19 19 20 21 22 22 21 20 20 21 22 21 21 21 19 17 17 16 16 15 16 17 16 16 16 16 15 13 13 12 12 11 12 13 14 14 14 15 15 15 17 17 18 18 18 19 19 18 18 17 17 17 17 17 16 16 14 12 11 11 10 9 7 6 5 5 4 4 4 5 5 5 5 7 7 7 7 7 5 4 5 5 7
13 13 15 16 17 18 20 21 20 19 19 20 21 21 22 21 19 18 17 17 16 15 15 16 17 16 16 16 15 15 14 13 12 11 12 13 14 14 15 15 16 16 17 18 18 19 19 19 19 19 19 18 18 18 18 18 17 17 15 14 13 12 12 10 8 7 6 5 5 5 5 5 5 5 5 7 7 6 7 7 5 4 6 6 7
11 12 13 14 15 17 18 19 19 18 18 18 19 20 21 19 18 18 17 16 15 15 15 15 16 17 17 17 16 15 15 14 13 12 12 12 13 15 16 16 16 16 17 17 18 19 20 20 20 19 19 19 19 18 18 18 18 18 16 15 14 14 13 10 9 8 7 6 6 6 5 5 5 4 5 6 6 6 6 7 5 5 5 6 7
10 11 12 13 13 14 15 15 16 16 16 16 17 17 17 16 17 17 16 15 14 14 14 14 15 16 18 18 17 15 15 15 14 14 13 13 13 14 15 16 16 16 17 17 17 18 20 21 22 21 20 20 20 19 19 19 19 18 17 16 15 14 13 11 10 9 8 7 7 6 5 6 5 5 5 6 6 5 5 6 5 5 5 6 7
8 9 11 11 12 12 13 13 13 14 15 15 14 13 14 15 17 16 14 14 14 14 14 14 15 16 18 19 18 17 16 15 16 16 15 14 14 14 14 15 16 16 16 16 17 18 20 21 22 22 21 21 21 21 20 20 20 19 18 17 16 14 13 11 10 9 9 8 7 7 6 6 6 6 5 5 6 5 4 5 4 4 5 6 7
8 8 9 10 12 12 13 13 12 13 14 13 12 12 13 15 15 15 14 14 15 15 15 15 15 16 17 19 19 18 17 17 17 17 16 15 14 13 14 14 15 17 17 17 18 19 19 20 20 21 22 22 22 22 21 20 20 20 19 18 16 15 13 12 12 11 10 9 9 8 7 6 7 7 6 5 6 5 4 4 4 4 4 5 6
10 8 9 10 12 12 12 13 13 13 13 12 11 11 12 14 15 14 13 14 15 15 15 15 15 16 17 18 20 19 18 18 18 17 16 15 14 14 14 14 14 16 17 17 17 18 18 19 19 20 22 23 23 22 21 21 21 20 19 18 17 16 15 14 13 13 12 11 10 9 9 8 8 8 7 6 5 5 5 4 4 4 3 4 5
11 9 9 9 11 11 12 14 13 13 13 12 11 10 11 13 13 12 12 13 14 14 15 15 16 16 16 18 19 19 19 18 18 17 16 15 14 13 13 13 13 14 16 16 15 16 17 18 18 19 21 23 23 22 22 21 21 21 20 19 18 17 17 16 15 14 13 13 12 11 10 9 8 8 8 7 6 6 5 5 5 5 4 5 5
12 11 9 7 8 9 12 14 14 13 13 12 10 9 10 11 10 10 11 12 13 13 14 15 15 15 15 17 19 19 19 18 18 18 17 14 12 12 12 12 12 14 14 14 14 14 15 16 17 18 20 22 22 22 21 21 21 22 21 20 19 19 18 17 16 15 15 14 14 13 11 10 9 9 9 8 7 7 6 6 6 6 5 5 5
13 12 8 6 6 7 10 12 13 13 13 12 10 9 11 11 11 11 11 11 12 13 13 14 14 14 15 16 18 19 19 17 18 17 15 13 11 11 12 12 13 13 13 13 13 13 14 14 15 17 19 20 21 21 20 20 21 22 22 21 20 20 18 17 16 16 16 16 14 13 12 11 10 10 9 9 8 8 8 7 6 6 5 5 5
11 9 8 6 6 7 9 10 13 14 13 11 10 10 11 11 10 10 10 10 11 12 13 14 15 14 15 16 17 18 18 17 17 16 14 13 12 11 11 12 12 13 13 12 13 13 13 13 14 16 18 19 20 20 19 20 21 22 22 22 21 21 19 18 18 17 17 16 15 14 12 12 11 11 11 11 10 9 8 7 6 6 5 5 5
8 6 7 6 6 8 9 9 12 13 11 10 10 10 10 9 8 8 8 8 8 10 13 14 15 15 16 16 17 17 17 18 18 15 14 14 13 12 11 11 12 12 13 13 13 13 14 14 15 17 18 18 18 18 19 20 21 22 22 21 21 21 20 19 19 18 17 16 15 15 13 13 13 12 12 12 11 10 8 7 7 7 6 6 6
7 6 7 7 8 9 9 10 10 10 10 9 9 9 9 8 7 7 7 6 6 7 9 11 13 15 16 16 16 16 16 18 17 15 15 15 14 13 12 11 11 12 13 12 12 13 14 15 15 16 17 17 18 18 19 20 21 21 21 21 21 22 21 20 19 19 17 16 16 15 14 14 13 13 12 12 12 10 8 8 8 8 8 8 7
8 8 8 9 10 10 10 10 9 9 9 8 8 9 8 7 6 5 5 4 4 4 5 8 11 13 14 14 14 15 15 16 16 15 15 15 15 14 13 13 12 12 13 13 13 14 14 15 15 15 16 16 17 19 20 20 20 20 20 20 21 22 21 20 20 19 18 18 17 16 15 15 14 14 13 13 13 11 10 10 10 9 9 9 8
10 10 11 11 10 10 9 9 8 8 8 7 7 8 7 7 6 5 3 3 3 2 3 6 8 8 9 10 11 12 13 14 14 14 15 16 15 14 14 14 14 14 14 14 14 14 14 15 15 15 15 16 16 18 19 20 20 21 21 21 22 22 21 21 21 20 20 19 18 17 16 16 15 14 13 13 14 13 12 11 11 10 10 10 10
10 10 11 11 10 9 8 7 7 8 8 7 7 7 8 7 5 4 3 3 4 3 3 5 6 5 5 7 9 10 12 13 13 13 14 15 15 14 15 15 15 16 15 15 14 14 14 15 15 14 15 15 15 16 17 18 19 21 22 22 23 23 22 22 22 22 21 20 19 18 16 16 15 14 14 14 14 14 14 13 12 11 12 11 11
10 11 11 10 9 8 7 6 6 7 8 8 7 7 7 6 5 4 4 3 4 3 3 4 5 4 5 6 7 10 12 13 13 15 16 16 15 16 17 17 17 16 16 17 16 14 14 15 15 15 15 15 15 15 16 18 18 20 21 22 23 24 23 23 23 23 22 21 20 19 18 17 16 15 14 14 15 15 16 15 14 13 13 13 12
10 12 11 10 9 8 8 7 6 6 7 7 7 7 7 6 6 5 4 3 3 3 3 4 5 6 6 7 9 11 12 13 14 16 17 17 16 16 17 18 17 16 16 16 16 15 16 16 16 15 16 16 16 16 17 18 19 20 21 22 23 24 24 24 24 24 23 23 22 21 20 19 17 16 15 15 15 16 17 17 16 15 15 14 14
11 11 11 10 9 9 9 8 8 7 6 6 6 6 6 6 6 6 5 4 4 4 4 5 5 6 7 7 9 10 11 13 14 16 16 17 17 16 17 17 18 17 16 15 16 17 17 17 15 15 16 17 18 18 18 19 20 21 22 22 23 24 24 25 25 24 23 23 22 22 21 20 19 18 17 17 17 18 19 18 17 17 16 16 16
11 9 8 8 8 8 8 7 7 6 5 4 3 3 4 4 5 5 5 6 5 5 6 6 6 6 6 7 8 9 10 11 13 15 16 16 17 17 17 17 18 18 16 15 16 17 17 17 16 17 17 18 18 19 19 20 22 22 23 23 23 24 25 26 25 24 24 24 23 22 22 21 20 20 19 19 19 19 20 19 19 18 17 17 17
11 10 8 8 7 7 6 6 5 4 3 2 2 2 2 3 3 3 4 4 4 5 5 5 6 6 7 7 8 9 10 11 12 13 13 13 14 14 15 15 16 17 16 16 17 18 18 17 16 17 18 19 19 20 20 21 22 23 24 24 24 24 25 26 26 26 25 25 25 24 23 23 23 23 23 22 22 21 21 21 21 20 19 19 18
12 11 10 9 8 8 7 6 5 4 3 2 1 1 1 1 2 2 2 2 2 3 3 4 5 5 6 7 8 9 9 10 11 11 12 12 12 12 12 13 13 14 16 18 19 20 19 18 16 17 18 19 20 21 22 22 23 23 24 24 24 24 24 25 26 27 27 27 27 26 25 25 26 26 26 25 24 23 23 22 22 22 22 21 20
11 11 11 10 9 8 7 6 5 4 3 2 2 1 1 1 1 2 2 3 3 4 4 5 5 5 6 6 7 8 8 9 10 11 12 12 12 12 12 12 12 13 14 17 19 20 20 19 18 18 18 19 21 22 24 24 24 23 23 23 23 23 24 25 26 27 27 27 27 27 27 27 27 27 27 27 26 25 24 24 24 24 24 23 23
10 10 10 10 8 8 7 6 5 4 3 2 1 1 2 2 3 4 4 5 6 6 7 7 7 7 6 7 7 8 8 9 10 11 12 12 12 12 12 12 13 12 13 15 17 19 20 21 21 21 20 20 21 22 24 25 24 23 23 23 23 23 24 25 26 27 27 28 27 27 28 28 28 28 27 27 27 26 26 26 26 26 26 26 25
9 9 9 8 7 7 6 5 5 4 3 2 1 1 2 3 4 5 6 6 7 8 8 9 9 8 8 8 8 8 9 9 10 11 11 12 12 12 12 13 13 13 14 15 17 18 18 20 21 22 23 22 22 22 23 24 24 24 24 24 24 24 24 25 26 26 27 28 28 29 29 29 29 29 29 29 28 28 28 28 28 28 28 27 27
11 9 9 7 6 6 6 5 4 3 2 1 1 2 3 4 5 5 6 7 8 8 8 9 9 8 8 9 9 9 9 10 11 12 11 12 12 13 13 14 15 15 16 17 17 18 18 19 20 21 22 23 23 24 24 24 25 25 25 26 25 25 25 25 25 26 27 29 29 29 30 29 29 30 30 30 30 29 29 29 29 29 29 29 28
11 10 9 6 4 4 5 5 5 4 2 1 2 4 4 5 5 5 6 7 7 7 7 8 8 8 9 10 10 10 10 10 11 12 12 12 13 13 14 15 16 17 18 18 18 19 19 19 19 20 21 22 24 25 25 26 26 26 26 26 27 27 26 26 26 26 28 28 28 29 30 30 29 30 30 30 30 30 30 30 29 29 29 29 29
11 12 11 8 5 5 6 6 5 4 3 2 2 4 5 4 4 4 5 6 6 6 6 7 7 8 8 9 9 10 10 11 11 12 12 12 13 14 14 15 17 17 18 19 19 20 20 20 21 21 21 22 23 24 26 27 28 28 27 27 27 28 28 28 28 28 27 26 26 29 31 30 29 30 30 30 30 31 31 30 29 29 30 30 30
11 12 13 12 8 7 9 9 7 4 3 2 2 4 4 4 3 3 3 4 5 5 6 7 8 8 8 8 9 9 10 10 11 12 12 13 13 14 14 15 16 17 18 19 19 20 21 21 21 22 22 23 23 23 25 26 27 29 29 29 29 28 28 30 31 30 29 27 28 30 30 30 30 31 31 30 30 31 31 31 30 31 32 32 31
9 10 12 13 11 11 12 11 8 6 4 2 2 2 3 3 2 2 3 3 4 5 6 6 7 8 8 9 9 9 9 10 11 12 12 13 14 14 15 16 17 17 18 19 19 20 20 21 21 22 22 23 23 23 24 25 25 27 28 29 30 30 29 30 30 30 29 29 30 30 31 31 31 31 31 31 31 32 33 32 31 32 32 31 30
9 10 11 12 13 14 15 12 9 8 5 4 3 2 3 3 2 2 3 4 5 6 6 6 6 7 8 9 9 10 10 11 11 12 12 13 14 14 15 16 17 18 18 19 20 20 20 20 21 21 21 22 22 23 23 24 24 26 27 28 29 29 30 31 31 30 29 29 30 30 31 31 31 31 32 32 33 33 33 33 32 32 32 31 30
12 12 13 13 14 15 14 12 11 9 7 5 3 3 3 3 2 3 4 4 5 6 6 7 7 7 7 8 9 10 11 11 12 13 13 13 14 15 16 16 17 18 19 20 20 20 20 20 20 21 21 21 21 22 22 22 23 24 25 26 27 28 29 30 31 32 31 31 30 29 29 29 29 30 31 32 32 32 32 32 33 34 34 33 31
14 14 14 14 13 14 14 14 12 9 7 5 4 4 4 3 3 4 4 5 6 6 7 8 8 7 8 8 9 10 11 12 12 13 13 13 14 14 15 16 17 18 19 20 20 20 20 20 21 21 21 21 21 21 22 22 23 23 23 24 25 26 27 28 29 30 31 31 31 31 30 29 29 29 29 29 29 30 30 31 31 32 32 32 31
15 16 15 15 14 13 14 14 12 10 8 6 5 4 4 4 4 4 5 6 7 8 9 9 8 8 8 8 9 10 11 11 12 12 12 13 13 13 13 14 16 17 18 19 19 20 21 21 22 22 22 22 22 22 22 23 23 24 24 24 24 25 26 27 27 28 29 29 30 31 31 30 30 29 28 28 28 28 29 29 30 30 30 30 29
15 16 16 16 16 15 15 16 14 12 9 7 5 5 5 5 5 5 6 7 8 8 9 9 9 8 8 9 9 10 10 11 11 11 11 11 12 12 12 13 15 16 18 19 19 20 21 22 23 23 23 22 22 23 24 24 23 24 24 25 26 26 26 26 26 27 28 28 29 29 30 30 31 31 30 29 29 29 29 29 30 30 30 30 30
16 16 17 18 18 17 17 18 16 14 11 8 6 5 6 6 6 6 7 8 8 9 9 9 9 8 9 9 9 10 10 10 10 10 10 10 11 11 12 13 14 16 17 18 19 20 21 21 22 22 23 23 23 23 23 23 24 24 24 25 26 26 27 27 27 27 27 28 28 28 29 29 29 29 28 27 26 26 26 27 28 28 29 30 30
17 18 18 19 20 19 19 19 19 16 12 8 6 6 7 7 6 7 8 9 9 9 9 9 8 8 8 9 9 10 10 9 9 9 10 10 10 11 11 12 13 15 16 17 18 19 20 21 21 21 21 21 21 21 22 22 23 22 22 23 24 25 26 26 27 27 27 27 27 27 27 27 26 25 24 24 24 25 25 25 26 26 27 27 28
20 21 21 21 23 24 21 20 20 18 13 9 6 6 7 7 7 8 9 10 10 10 9 9 8 8 8 8 9 9 8 8 9 9 8 9 9 10 10 11 12 13 14 14 15 16 17 17 18 18 18 18 18 18 19 19 20 20 21 21 22 23 24 24 25 25 25 26 27 26 26 25 25 25 25 25 25 25 25 25 24 24 24 24 24
22 23 23 24 26 29 26 21 19 18 15 10 7 7 9 8 8 9 10 10 10 10 9 8 8 7 8 8 8 8 8 8 8 7 7 7 7 8 9 10 10 10 11 11 12 12 13 13 13 13 13 14 14 15 15 15 16 17 18 18 19 20 21 21 22 23 23 24 25 25 25 25 25 25 24 24 23 23 22 22 21 21 21 21 21
24 25 26 26 26 28 27 21 17 17 15 12 9 9 10 10 9 10 10 10 10 9 8 7 7 7 7 7 7 7 8 8 7 6 6 6 6 7 7 8 9 8 8 9 9 10 10 10 10 9 9 9 10 11 11 10 11 11 12 13 15 16 17 17 19 19 20 20 21 21 22 22 22 21 21 20 20 19 18 18 17 17 17 16 16
23 26 28 27 27 26 25 22 20 18 15 12 12 11 11 11 10 10 11 11 9 7 6 5 5 6 7 7 7 7 8 8 7 6 6 6 6 6 7 7 8 8 9 9 9 8 8 8 8 7 7 6 6 6 7 6 5 5 6 8 9 9 10 12 13 14 14 15 15 15 16 16 16 16 15 15 14 14 13 13 12 12 12 11 11
21 24 26 27 29 27 23 20 22 21 17 14 14 13 13 12 11 11 11 10 7 5 5 4 5 6 6 7 7 8 8 7 7 6 5 5 6 6 7 8 9 10 11 10 9 8 7 7 6 6 5 5 4 3 2 2 1 1 2 3 3 4 4 5 6 7 8 8 8 9 9 9 10 9 9 9 9 9 9 9 9 9 9 9 8
Wind_Direction
209 215 223 229 232 234 235 232 227 230 236 242 244 237 237 241 233 223 225 229 234 237 235 234 237 236 234 231 228 224 221 221 218 216 219 219 219 221 223 227 228 229 231 233 235 237 240 241 240 239 241 246 248 252 261 270 272 267 269 275 280 287 301 312 317 331 338 339 347 352 349 348 353 358 357 356 355 351 347 357 10 15 14 11 18
207 213 222 226 230 234 234 234 231 232 242 249 253 250 246 244 240 228 223 229 237 238 236 234 235 237 236 231 230 230 227 225 224 223 224 222 221 221 224 227 229 230 232 235 237 239 242 243 242 240 240 243 246 250 257 265 263 261 266 270 276 287 301 306 308 323 329 338 351 350 347 351 355 358 357 358 2 351 343 8 24 24 26 24 23
213 215 222 225 229 234 235 236 235 235 241 246 250 252 251 250 251 244 229 224 232 240 241 236 234 236 236 231 230 234 234 230 228 228 229 228 225 224 227 229 230 230 232 234 236 239 242 243 244 242 240 242 244 249 255 261 259 259 262 266 274 284 293 298 304 314 316 336 354 347 351 358 358 357 356 359 5 350 346 18 35 30 30 28 24
218 219 224 226 230 235 236 237 240 239 241 247 252 252 253 256 258 255 245 234 232 239 243 239 237 236 235 233 232 236 237 234 233 234 236 237 234 231 231 232 233 235 236 237 237 239 242 243 243 241 239 240 243 247 252 258 258 257 258 264 272 278 281 284 293 301 306 332 345 341 356 5 359 354 356 5 1 344 357 29 42 37 33 33 33
220 221 226 229 230 234 235 237 241 242 244 250 256 254 254 257 259 260 258 252 245 244 244 241 240 243 242 238 236 240 241 238 237 238 240 243 242 238 235 234 235 238 241 241 240 240 242 243 242 239 237 239 241 241 246 252 257 259 258 263 270 274 274 273 278 292 304 323 328 336 359 5 0 353 358 12 2 348 11 34 39 34 29 29 38
221 222 226 230 231 232 234 236 240 241 244 250 255 256 255 257 261 263 263 261 255 250 249 244 242 246 248 245 239 239 241 240 237 236 238 240 243 242 239 236 234 236 241 242 242 240 241 242 242 239 236 237 238 236 239 246 254 257 257 261 263 263 267 269 268 280 300 310 314 340 359 359 360 354 356 9 8 2 18 33 31 26 21 19 24
228 226 223 228 231 232 234 236 238 240 242 247 250 253 255 258 261 262 263 263 257 250 249 246 242 242 246 246 241 238 240 241 239 238 239 238 239 240 239 238 234 234 237 240 242 240 239 240 241 240 237 235 235 234 235 240 247 252 254 256 254 251 258 262 259 270 297 300 309 343 352 352 360 354 350 2 13 10 12 22 23 19 14 12 10
230 226 221 224 228 231 234 235 237 239 241 244 246 249 254 258 259 258 259 262 257 249 247 245 241 240 242 245 244 242 242 244 244 244 245 243 243 242 241 240 238 236 236 237 239 240 239 238 239 241 239 237 236 234 233 234 240 246 246 247 247 247 252 256 258 273 290 288 305 336 338 341 351 349 343 358 14 12 11 16 15 21 18 10 14
226 222 222 225 228 232 235 235 234 235 238 241 244 249 253 254 254 253 255 261 259 252 247 243 240 239 239 241 243 243 243 246 248 249 250 249 248 247 245 244 242 239 239 237 235 236 238 237 237 239 240 239 236 234 232 231 235 241 240 238 240 244 249 251 257 270 279 279 290 310 321 329 334 340 346 357 6 7 18 27 26 35 33 24 25
220 216 219 221 226 229 231 233 231 231 235 239 243 245 247 246 248 253 256 259 258 253 248 243 240 239 238 239 242 242 243 248 253 254 255 254 251 250 249 248 246 242 240 238 235 234 236 237 237 237 237 238 235 233 231 228 230 236 236 234 234 239 245 246 250 261 273 277 282 295 309 319 329 345 353 354 355 356 11 28 47 56 44 40 34
207 204 206 210 215 217 220 225 228 229 231 236 239 238 238 240 247 255 256 254 254 252 247 243 239 238 238 239 240 239 241 246 251 255 258 259 258 256 253 251 250 247 243 241 239 237 237 237 237 236 235 235 234 232 229 226 227 232 234 233 233 237 242 245 248 257 270 276 277 284 293 310 329 343 345 340 339 347 3 13 30 41 32 33 29
196 194 196 203 210 212 215 220 225 227 227 230 233 233 234 238 244 250 253 251 250 248 246 242 238 236 237 239 238 238 238 241 245 252 257 262 264 263 260 256 254 251 249 246 243 240 238 237 237 234 232 232 232 231 228 224 225 229 231 231 232 235 240 244 247 253 267 274 273 277 287 303 316 325 328 321 319 336 355 1 8 20 24 26 20
198 198 197 200 207 213 214 217 222 225 228 230 232 234 233 233 237 244 248 248 246 244 244 242 238 236 235 237 238 238 239 239 241 246 252 259 264 264 263 262 257 254 253 253 248 244 241 239 237 234 230 229 229 229 226 223 224 228 229 229 230 232 238 244 247 253 261 264 268 279 285 290 296 306 311 302 301 320 341 349 356 7 22 24 15
201 204 205 203 204 212 216 218 221 223 228 231 232 232 228 225 229 235 239 243 243 241 241 242 240 236 233 233 234 235 237 238 238 242 247 253 258 260 262 262 259 255 255 254 250 245 244 242 239 233 229 227 226 226 224 222 222 225 226 226 227 229 233 239 244 247 252 258 267 275 274 276 286 290 287 284 291 304 323 337 345 355 12 17 7
206 209 214 210 204 208 215 219 220 219 224 229 227 222 217 218 222 226 231 237 240 241 240 241 241 236 231 229 229 231 233 235 237 240 244 248 251 253 255 256 254 252 250 248 245 243 243 243 239 233 228 226 225 224 223 221 221 223 224 225 225 225 227 233 238 241 246 255 263 270 275 279 280 278 275 276 286 294 306 325 330 337 359 12 8
212 215 222 218 210 209 208 208 209 213 222 228 225 217 212 215 219 221 228 233 239 243 241 239 238 236 232 227 226 227 226 229 234 238 239 240 242 243 246 248 249 249 247 244 243 242 241 240 238 234 229 226 223 222 221 220 221 222 223 223 223 224 224 227 235 241 246 254 260 266 273 277 272 271 273 275 280 286 294 306 308 308 335 6 16
209 210 220 220 214 208 199 197 202 211 221 225 221 213 209 214 220 226 232 238 244 246 241 237 235 237 236 229 225 224 222 224 228 230 231 233 236 240 243 245 246 247 245 242 240 239 237 236 234 231 227 225 222 221 220 219 220 221 221 221 223 226 227 226 231 239 245 250 257 263 265 267 267 266 270 272 271 273 277 284 288 294 319 352 14
204 206 212 215 212 204 193 198 208 212 218 223 218 207 207 214 222 230 235 240 245 244 239 235 234 236 237 229 223 221 221 222 222 223 226 229 233 238 243 243 242 241 240 237 236 236 234 231 230 226 224 223 222 221 219 219 221 222 221 221 222 227 230 230 232 235 239 244 250 259 264 267 267 262 263 266 265 266 265 266 276 291 314 336 358
201 208 211 209 212 209 201 206 214 214 217 223 219 209 210 216 222 227 234 240 246 247 243 239 236 235 232 225 219 219 220 219 217 219 224 226 228 235 241 241 239 238 236 232 231 231 230 229 226 224 222 222 222 221 219 220 222 222 222 222 223 227 230 232 234 234 236 240 245 252 260 265 263 255 252 256 259 261 260 258 271 290 304 317 333
196 209 210 212 214 208 205 210 213 213 216 220 217 213 213 219 226 231 237 245 251 251 245 240 237 231 225 222 220 222 222 217 213 217 223 225 226 231 238 241 241 239 235 231 228 225 223 222 222 222 220 219 220 220 219 221 222 222 220 220 223 227 229 229 232 234 236 239 243 247 252 257 257 253 250 251 252 255 257 258 266 276 284 290 299
190 209 210 212 207 197 198 204 205 206 211 214 214 214 213 216 222 227 234 245 255 255 247 240 234 225 220 219 221 223 222 216 213 217 222 225 227 228 232 238 240 238 233 229 228 226 222 217 216 218 220 221 220 220 221 222 223 221 217 218 221 225 227 228 230 233 234 236 239 242 245 250 251 248 247 248 249 253 256 257 256 257 263 269 275
190 210 217 213 202 192 191 196 198 199 205 210 212 214 213 211 211 217 232 252 273 271 254 237 224 216 215 216 216 217 217 213 215 218 222 226 229 229 230 233 237 237 234 229 228 230 229 222 216 215 218 222 223 223 224 225 225 222 217 215 218 222 226 227 229 230 232 234 236 239 242 245 245 243 244 248 251 252 252 250 249 250 254 257 261
194 207 215 212 201 190 190 196 199 200 204 208 211 214 216 218 216 214 226 255 280 280 247 221 211 210 216 216 212 212 211 209 212 218 223 227 231 234 235 235 236 238 234 230 227 228 231 228 221 217 217 219 223 225 225 225 225 224 220 216 217 220 222 225 228 228 228 231 234 235 238 240 241 240 241 246 251 251 245 242 243 247 252 254 257
191 199 203 202 196 192 196 199 195 197 203 205 204 207 209 215 217 212 216 235 251 248 209 205 208 212 217 215 210 211 210 208 212 220 228 231 230 232 236 238 239 240 236 233 231 229 232 233 227 223 222 221 224 227 228 226 225 223 221 218 216 218 219 221 224 225 227 229 231 231 233 235 237 238 239 243 248 250 247 243 244 247 251 252 255
178 186 192 189 187 190 198 201 191 189 195 196 195 198 200 201 202 209 222 225 221 211 178 188 201 205 203 207 215 221 219 216 220 229 237 239 237 236 236 237 238 239 239 238 235 232 234 236 232 228 227 226 226 228 230 229 227 225 223 220 217 216 217 219 220 221 224 228 229 229 230 233 234 235 238 242 246 250 251 249 249 250 250 249 252
169 177 183 178 178 184 188 194 193 186 187 189 185 189 196 199 201 217 233 229 220 216 201 199 205 204 205 217 230 233 229 225 228 235 239 244 248 244 238 235 236 239 242 240 237 234 233 234 232 228 227 228 226 226 228 228 227 226 226 225 221 218 217 218 217 218 220 225 228 228 229 232 232 232 235 239 243 248 251 249 248 249 249 249 251
174 174 176 174 175 178 176 178 182 178 177 181 181 185 191 195 200 210 220 228 227 218 218 223 218 213 218 227 234 237 235 232 232 234 238 243 246 244 241 241 241 242 242 237 235 236 235 232 231 229 228 228 226 225 227 227 225 224 225 227 227 225 223 220 218 217 218 221 224 225 226 228 229 229 231 234 239 245 248 249 250 251 251 251 251
187 180 176 175 174 174 174 170 165 161 162 170 177 183 189 193 197 202 210 225 238 237 235 239 229 221 220 220 225 230 233 233 234 237 241 243 242 242 242 242 242 241 242 240 238 240 240 238 236 236 234 231 228 227 227 227 225 225 225 226 227 227 227 226 223 221 221 222 224 224 224 224 226 228 230 233 237 242 246 248 250 251 253 253 253
193 189 179 176 174 171 171 164 153 149 153 161 168 177 188 197 199 203 207 214 223 231 236 241 241 237 232 224 223 225 227 231 233 237 241 242 239 238 237 237 240 242 242 243 244 244 244 243 241 239 238 235 232 231 229 228 228 229 228 227 227 226 228 229 228 225 224 226 227 228 227 227 228 230 232 233 236 240 245 249 251 252 253 253 254
189 188 187 184 178 171 168 161 149 144 149 159 166 175 187 195 195 201 207 208 213 222 228 232 234 236 235 233 231 230 229 230 231 233 236 239 241 241 240 242 247 246 241 237 241 245 246 246 244 240 239 237 235 233 232 231 232 232 231 230 229 228 228 229 229 227 227 228 229 230 230 229 230 232 234 235 236 238 242 247 252 254 255 255 256
186 184 187 184 178 175 172 165 158 154 160 172 178 181 193 197 199 208 218 224 237 245 246 241 237 234 234 234 234 235 236 235 236 238 239 240 244 246 249 250 250 247 241 237 238 242 244 245 244 243 241 238 235 234 235 236 235 234 233 232 233 232 231 230 229 229 230 230 230 231 231 231 231 232 234 235 236 238 241 246 250 254 258 259 259
186 184 184 182 179 177 173 167 161 159 167 181 181 192 241 258 263 278 285 289 293 290 285 276 267 259 253 248 246 245 243 241 240 241 243 245 246 246 248 250 248 245 242 239 239 241 243 244 244 244 243 240 238 237 239 241 240 237 236 235 236 236 234 233 232 232 231 231 232 233 235 235 235 235 236 237 238 239 242 245 249 252 256 259 260
189 185 184 185 182 179 175 168 160 160 171 184 181 220 268 279 284 288 293 298 300 298 296 293 287 283 276 271 267 261 255 252 248 246 247 249 249 248 247 248 248 247 244 242 243 244 245 245 244 243 243 242 241 240 241 245 246 243 239 238 238 238 239 239 238 237 234 232 233 235 237 239 240 241 241 241 241 242 244 247 250 252 254 257 259
194 187 185 188 186 184 180 169 165 172 182 190 227 261 270 277 278 279 281 286 289 290 290 289 287 286 281 277 274 268 264 260 257 256 255 254 253 252 250 248 248 247 246 245 245 245 246 245 245 244 243 243 243 243 243 245 248 246 243 240 239 239 240 242 243 242 239 236 235 236 238 241 243 245 245 245 245 245 247 249 251 253 255 257 259
204 195 188 189 195 201 195 178 172 176 181 203 260 266 271 273 272 275 278 280 282 283 281 281 281 278 272 268 266 264 262 262 261 262 261 259 257 254 252 250 249 248 247 247 247 247 248 247 247 247 246 245 244 243 242 243 245 245 244 243 243 242 242 242 242 242 241 239 237 238 240 243 246 247 248 249 249 250 251 251 252 254 256 258 259
219 215 202 194 208 231 227 207 186 179 184 208 240 252 260 263 267 276 282 284 286 286 284 281 275 268 264 263 261 259 258 258 261 264 264 262 259 257 256 254 253 252 251 251 251 251 251 251 250 250 249 248 246 244 243 242 243 244 244 244 245 246 245 244 242 242 242 242 243 244 244 245 247 249 250 251 252 254 254 253 253 255 257 258 259
228 224 210 203 217 245 250 240 215 198 202 210 228 240 245 251 265 281 290 295 299 299 295 288 279 271 266 262 260 259 258 259 262 264 264 263 261 261 259 258 257 257 256 256 256 255 255 254 253 252 251 250 248 246 244 243 243 244 244 244 245 246 245 244 244 244 244 245 245 246 247 248 249 250 251 252 254 255 254 253 254 256 258 259 260
230 224 212 212 225 248 256 249 235 229 226 221 232 238 238 246 260 283 303 311 313 309 302 296 291 286 278 272 268 264 262 263 264 264 265 266 264 263 261 260 259 259 259 259 258 257 256 256 255 255 254 253 252 250 248 247 245 244 243 243 244 244 245 245 245 246 246 245 244 247 250 251 252 252 252 252 254 255 254 254 256 257 258 259 259
230 227 220 221 231 249 255 247 240 248 256 252 242 230 232 244 256 289 312 316 311 309 304 296 291 287 285 282 280 275 271 268 266 266 266 266 265 265 263 262 262 262 261 260 259 258 258 257 255 254 254 254 253 252 251 251 249 248 246 244 243 243 244 244 246 246 246 246 246 248 250 251 251 253 253 252 253 253 254 255 257 257 258 258 258
224 226 228 230 237 250 254 248 243 254 265 268 260 231 225 235 251 285 302 304 304 305 302 294 286 281 279 278 277 278 277 275 273 272 269 268 267 266 264 264 264 264 264 263 262 261 260 260 259 257 255 253 252 252 252 251 251 250 250 248 247 245 244 243 245 245 245 245 246 247 248 248 248 249 250 250 251 252 253 255 256 257 257 257 257
220 227 234 239 243 245 244 237 238 251 264 268 261 241 228 230 253 280 292 302 306 306 301 295 290 284 279 278 277 277 278 277 277 276 273 272 271 269 269 269 268 267 267 266 266 265 264 263 262 261 259 257 254 252 251 250 250 250 250 250 249 248 246 245 245 245 244 244 246 246 247 247 248 248 249 251 253 254 256 256 257 257 258 258 259
214 221 226 233 237 234 232 232 235 246 256 254 248 245 239 240 260 284 298 307 309 306 302 299 298 294 288 284 281 279 278 278 277 276 274 273 272 272 272 272 272 271 270 270 270 270 268 266 263 262 261 260 258 256 253 251 249 248 248 248 248 248 248 248 247 247 245 244 246 248 250 251 251 251 253 254 254 255 256 257 257 258 259 260 261
215 220 222 225 228 229 232 235 237 243 248 242 236 237 239 248 266 286 299 304 305 304 304 305 306 304 297 290 286 284 283 281 279 279 278 278 277 276 275 274 273 273 273 273 273 272 270 269 267 264 263 261 259 257 254 252 250 248 246 246 246 247 248 248 247 248 248 247 248 249 251 251 252 252 254 254 255 255 256 258 259 260 260 262 262
226 230 232 231 229 228 231 233 235 241 243 240 235 236 238 249 266 281 291 298 301 303 306 309 311 308 301 296 293 291 288 285 284 283 282 281 281 281 280 278 277 276 276 276 275 273 272 270 269 268 266 264 261 258 256 254 251 248 246 244 243 243 245 247 246 246 247 248 249 249 250 250 250 252 254 255 257 258 260 261 261 261 261 261 262
233 238 244 243 237 230 228 229 233 238 241 241 239 243 246 252 268 284 291 297 300 301 306 312 314 311 305 302 298 294 290 288 289 291 292 292 292 292 291 288 284 281 279 278 277 276 275 274 273 272 271 269 265 262 260 257 254 251 247 245 244 242 242 243 244 245 246 247 248 249 250 251 252 254 256 257 259 259 259 259 259 258 259 260 261
226 232 240 246 244 235 226 226 229 233 236 242 246 246 248 257 272 287 293 296 298 301 307 312 313 309 306 303 298 294 293 295 297 298 299 299 300 299 296 292 287 283 281 278 278 278 276 276 276 275 274 273 271 267 263 260 257 255 251 248 246 245 244 243 243 244 245 245 246 248 250 252 253 255 256 257 257 258 258 259 259 260 261 261 263
223 229 232 235 237 234 226 221 224 227 230 240 252 252 249 257 272 283 289 293 295 300 306 309 307 304 302 300 295 293 295 293 290 291 293 297 300 302 300 298 294 289 286 282 280 279 278 278 278 277 275 274 271 268 264 260 257 255 252 249 248 247 246 244 243 243 243 243 245 246 248 250 251 253 255 257 259 260 261 262 262 262 263 263 264
231 238 240 236 235 236 233 225 219 221 228 235 247 252 250 254 266 276 283 287 290 296 303 303 301 300 299 297 294 290 284 278 276 282 292 298 305 311 311 309 306 302 299 295 291 288 286 284 283 281 279 276 272 269 266 260 255 252 250 249 249 249 246 245 244 243 242 242 244 246 248 251 253 256 258 259 260 261 261 261 262 263 263 263 264
241 242 245 245 245 249 254 249 228 215 223 236 243 245 248 253 263 273 280 284 288 296 301 298 296 298 298 296 288 277 271 270 275 288 303 312 324 333 330 324 320 319 320 318 314 309 305 301 299 296 292 287 282 277 272 265 257 251 245 242 247 251 249 246 246 245 245 246 247 250 252 254 256 258 259 260 261 262 262 263 263 263 261 259 258
250 246 245 247 247 251 258 258 240 216 211 227 242 242 244 253 265 274 279 284 291 298 300 299 302 305 302 294 281 272 270 272 279 293 311 327 340 349 349 345 343 345 346 345 340 333 327 323 320 317 315 309 300 290 283 277 267 258 247 242 246 250 247 245 246 247 248 249 250 252 254 255 257 259 261 262 263 262 262 262 260 258 257 255 253
253 253 252 252 251 249 248 249 245 231 212 210 226 235 241 252 265 274 278 282 288 293 299 310 319 318 309 297 287 283 280 277 280 292 316 336 342 349 2 8 7 5 2 360 359 356 351 343 336 331 329 328 329 331 322 305 287 264 246 237 236 235 232 233 234 234 237 240 241 245 248 249 252 253 254 255 257 258 260 261 261 262 262 260 259
Height
3183 3182 3182 3183 3184 3185 3186 3188 3189 3189 3191 3192 3192 3193 3194 3195 3196 3197 3197 3198 3198 3199 3200 3200 3201 3202 3203 3204 3204 3205 3206 3206 3207 3208 3209 3210 3210 3211 3211 3212 3213 3213 3214 3215 3215 3216 3216 3217 3218 3219 3220 3220 3221 3221 3221 3221 3221 3221 3221 3221 3221 3221 3221 3220 3220 3220 3219 3217 3216 3214 3213 3212 3212 3211 3210 3209 3208 3206 3205 3203 3202 3200 3198 3197 3196
3182 3181 3181 3182 3183 3184 3186 3187 3189 3189 3190 3191 3191 3192 3193 3194 3195 3196 3197 3197 3198 3198 3199 3200 3200 3201 3202 3203 3203 3204 3205 3205 3206 3207 3208 3208 3209 3210 3210 3210 3211 3212 3213 3214 3214 3215 3215 3216 3217 3218 3219 3219 3220 3220 3220 3220 3220 3220 3220 3220 3220 3220 3220 3220 3220 3219 3219 3217 3216 3214 3213 3212 3212 3211 3210 3209 3208 3207 3205 3204 3202 3201 3200 3198 3197
3180 3180 3180 3181 3182 3183 3185 3186 3188 3188 3188 3189 3190 3191 3192 3193 3194 3195 3196 3196 3197 3197 3198 3199 3200 3200 3201 3202 3202 3203 3203 3204 3205 3205 3206 3207 3208 3209 3209 3209 3210 3211 3211 3212 3213 3213 3214 3215 3215 3216 3217 3218 3218 3219 3219 3219 3219 3219 3219 3220 3220 3219 3219 3219 3219 3219 3218 3217 3216 3215 3214 3213 3212 3211 3211 3210 3208 3207 3206 3205 3203 3202 3201 3200 3198
3179 3179 3179 3180 3181 3182 3183 3184 3186 3186 3187 3188 3189 3190 3191 3192 3193 3194 3195 3196 3196 3196 3197 3198 3198 3199 3200 3201 3201 3202 3202 3203 3204 3204 3205 3206 3207 3208 3208 3209 3209 3209 3210 3211 3211 3212 3213 3213 3214 3215 3216 3216 3217 3218 3218 3218 3218 3219 3219 3219 3219 3219 3219 3219 3219 3218 3218 3217 3216 3215 3214 3213 3212 3211 3211 3210 3208 3207 3206 3205 3204 3203 3202 3201 3200
3177 3178 3178 3179 3180 3181 3182 3183 3184 3185 3186 3187 3188 3189 3190 3191 3191 3192 3193 3194 3195 3195 3196 3197 3197 3198 3199 3200 3201 3201 3201 3202 3203 3203 3204 3204 3206 3207 3207 3208 3208 3208 3209 3209 3210 3211 3211 3212 3213 3214 3214 3215 3215 3216 3217 3217 3217 3217 3218 3218 3218 3218 3218 3218 3218 3218 3217 3217 3216 3215 3214 3213 3212 3211 3211 3210 3209 3208 3206 3205 3204 3203 3202 3202 3201
3175 3176 3177 3177 3179 3180 3180 3181 3183 3185 3186 3186 3187 3187 3188 3189 3190 3191 3192 3193 3194 3194 3195 3195 3196 3197 3198 3199 3200 3200 3201 3201 3202 3202 3203 3203 3204 3205 3206 3206 3207 3207 3207 3208 3208 3209 3210 3211 3211 3212 3213 3213 3214 3215 3215 3216 3216 3216 3217 3217 3217 3217 3217 3217 3217 3217 3217 3217 3216 3215 3214 3213 3212 3211 3211 3210 3209 3208 3207 3206 3205 3204 3203 3202 3202
3173 3174 3174 3175 3176 3177 3178 3180 3181 3184 3185 3186 3186 3186 3186 3187 3188 3189 3190 3191 3192 3193 3193 3194 3195 3196 3197 3198 3199 3199 3200 3200 3201 3201 3201 3202 3203 3204 3204 3205 3205 3205 3206 3206 3207 3208 3208 3209 3210 3211 3211 3212 3212 3213 3214 3214 3215 3215 3215 3216 3216 3216 3216 3216 3216 3216 3216 3216 3215 3214 3213 3213 3212 3211 3210 3210 3209 3208 3207 3206 3205 3204 3203 3203 3202
3170 3171 3172 3173 3174 3175 3176 3178 3180 3182 3184 3184 3185 3185 3185 3186 3187 3188 3188 3189 3190 3191 3192 3193 3194 3195 3195 3196 3197 3198 3199 3199 3199 3199 3200 3201 3201 3202 3203 3203 3204 3204 3204 3205 3205 3206 3207 3208 3208 3209 3210 3211 3211 3212 3212 3213 3213 3214 3214 3214 3214 3215 3215 3215 3215 3215 3215 3215 3214 3214 3213 3212 3211 3211 3210 3210 3209 3208 3207 3206 3205 3205 3204 3203 3202
3168 3169 3170 3171 3172 3173 3175 3177 3179 3180 3181 3182 3183 3184 3184 3184 3185 3186 3186 3187 3188 3189 3190 3191 3192 3193 3194 3195 3196 3197 3197 3197 3198 3198 3199 3199 3199 3200 3201 3202 3202 3202 3202 3203 3204 3204 3205 3206 3207 3207 3208 3209 3209 3210 3211 3211 3212 3212 3213 3213 3213 3213 3214 3214 3214 3214 3214 3214 3214 3213 3213 3212 3211 3211 3210 3210 3209 3208 3208 3207 3206 3205 3205 3204 3203
3167 3168 3169 3170 3171 3172 3174 3175 3176 3178 3179 3180 3181 3181 3182 3182 3183 3184 3185 3185 3186 3187 3188 3189 3190 3191 3192 3193 3194 3195 3195 3196 3196 3197 3197 3198 3198 3199 3199 3200 3200 3201 3201 3201 3202 3202 3203 3204 3204 3205 3206 3207 3208 3208 3209 3210 3211 3211 3211 3212 3212 3212 3213 3213 3213 3213 3213 3213 3213 3213 3212 3212 3211 3211 3210 3210 3209 3208 3208 3207 3207 3206 3205 3204 3203
3166 3166 3167 3169 3170 3171 3172 3173 3174 3175 3177 3177 3178 3179 3180 3181 3182 3182 3183 3183 3184 3185 3186 3187 3188 3189 3191 3191 3192 3193 3193 3194 3195 3195 3196 3196 3197 3197 3197 3198 3198 3198 3199 3199 3200 3200 3201 3202 3202 3203 3204 3205 3206 3207 3208 3208 3209 3210 3210 3211 3211 3211 3212 3212 3212 3212 3212 3212 3212 3212 3212 3211 3211 3210 3210 3210 3209 3208 3207 3207 3207 3206 3205 3204 3203
3165 3165 3166 3167 3168 3169 3170 3171 3172 3173 3174 3175 3176 3177 3178 3180 3180 3181 3181 3182 3183 3183 3184 3185 3186 3187 3189 3190 3190 3191 3191 3192 3193 3193 3194 3194 3195 3195 3195 3195 3196 3196 3196 3197 3198 3198 3199 3200 3200 3202 3202 3203 3204 3205 3206 3207 3207 3208 3209 3209 3210 3210 3210 3211 3211 3211 3212 3212 3212 3211 3211 3211 3210 3210 3210 3210 3209 3208 3207 3207 3206 3205 3204 3204 3203
3164 3164 3165 3166 3167 3168 3169 3170 3171 3172 3173 3174 3174 3175 3176 3178 3179 3179 3179 3180 3181 3181 3182 3183 3184 3185 3186 3187 3188 3189 3190 3190 3191 3192 3192 3193 3193 3193 3193 3193 3194 3194 3194 3195 3195 3196 3197 3197 3198 3200 3201 3201 3202 3203 3204 3205 3206 3206 3207 3208 3209 3209 3210 3210 3210 3211 3211 3211 3211 3211 3211 3211 3210 3210 3209 3209 3209 3208 3207 3207 3206 3205 3205 3204 3203
3163 3163 3164 3165 3166 3167 3167 3168 3170 3170 3171 3172 3173 3174 3175 3176 3177 3177 3178 3178 3179 3180 3180 3181 3181 3183 3184 3185 3186 3187 3188 3189 3189 3190 3191 3191 3192 3192 3192 3192 3192 3192 3193 3193 3193 3193 3194 3195 3196 3197 3198 3199 3200 3201 3202 3203 3204 3205 3206 3207 3208 3208 3209 3209 3209 3210 3210 3210 3210 3210 3210 3210 3210 3209 3209 3209 3208 3207 3207 3206 3206 3205 3204 3203 3203
3162 3162 3163 3164 3165 3166 3166 3167 3168 3169 3170 3171 3172 3173 3174 3174 3175 3176 3177 3177 3177 3178 3178 3179 3179 3180 3181 3183 3184 3185 3186 3187 3188 3188 3189 3190 3190 3190 3190 3191 3191 3191 3191 3191 3191 3191 3192 3193 3194 3195 3196 3197 3198 3199 3200 3202 3202 3203 3204 3205 3206 3207 3207 3208 3208 3209 3209 3209 3209 3209 3209 3209 3209 3209 3208 3208 3208 3207 3207 3206 3206 3205 3204 3203 3203
3161 3161 3162 3162 3163 3164 3166 3167 3167 3168 3169 3169 3171 3172 3173 3173 3174 3175 3175 3175 3175 3176 3177 3177 3177 3178 3179 3180 3181 3182 3184 3185 3186 3187 3188 3188 3188 3188 3189 3189 3189 3189 3189 3189 3190 3190 3191 3191 3192 3193 3194 3195 3196 3197 3198 3199 3200 3201 3202 3203 3204 3205 3206 3207 3207 3208 3208 3208 3208 3208 3208 3208 3208 3208 3208 3208 3207 3207 3206 3206 3206 3205 3204 3203 3203
3160 3161 3161 3161 3162 3163 3164 3165 3166 3167 3168 3168 3170 3171 3172 3172 3172 3173 3173 3174 3174 3174 3175 3175 3175 3176 3177 3178 3179 3180 3182 3183 3184 3185 3186 3186 3187 3187 3187 3187 3188 3188 3188 3188 3188 3188 3189 3190 3190 3191 3193 3194 3194 3195 3196 3197 3198 3199 3200 3201 3203 3203 3204 3205 3206 3206 3207 3207 3207 3207 3207 3207 3207 3207 3207 3207 3206 3206 3206 3206 3205 3205 3204 3203 3203
3160 3160 3160 3161 3161 3162 3163 3164 3165 3166 3166 3167 3169 3170 3171 3171 3171 3171 3172 3172 3172 3172 3172 3173 3174 3174 3175 3176 3177 3178 3180 3181 3182 3183 3184 3185 3185 3186 3186 3186 3186 3186 3186 3186 3186 3187 3187 3188 3189 3190 3191 3192 3193 3194 3195 3195 3196 3197 3198 3199 3201 3201 3202 3203 3204 3205 3205 3205 3205 3205 3205 3206 3206 3206 3206 3205 3205 3205 3205 3205 3205 3204 3204 3203 3203
3159 3159 3160 3160 3161 3162 3163 3163 3164 3165 3165 3166 3168 3169 3169 3170 3170 3170 3170 3170 3170 3170 3170 3171 3172 3173 3173 3174 3175 3177 3178 3179 3180 3182 3183 3183 3184 3184 3184 3185 3185 3185 3185 3185 3185 3185 3186 3187 3187 3188 3189 3190 3191 3192 3193 3194 3194 3195 3196 3198 3198 3199 3200 3201 3202 3203 3203 3204 3204 3204 3204 3204 3204 3204 3204 3204 3204 3204 3204 3204 3204 3204 3203 3203 3203
3158 3159 3160 3160 3160 3161 3162 3163 3163 3164 3165 3166 3167 3168 3168 3168 3169 3169 3169 3169 3169 3169 3169 3169 3170 3171 3171 3172 3174 3175 3176 3178 3179 3180 3181 3182 3182 3182 3182 3183 3184 3184 3183 3183 3184 3184 3185 3185 3186 3187 3188 3189 3190 3190 3191 3192 3193 3193 3194 3195 3196 3197 3198 3199 3200 3200 3201 3201 3202 3202 3202 3202 3202 3203 3203 3203 3203 3203 3203 3203 3203 3203 3202 3202 3202
3158 3158 3159 3159 3160 3160 3161 3162 3163 3164 3164 3165 3166 3166 3166 3167 3168 3168 3167 3167 3167 3167 3166 3167 3168 3169 3170 3171 3172 3173 3175 3176 3177 3178 3179 3180 3180 3180 3181 3182 3182 3182 3182 3182 3183 3183 3183 3184 3184 3185 3186 3187 3188 3188 3189 3190 3191 3192 3192 3193 3194 3195 3196 3197 3198 3198 3199 3199 3200 3200 3201 3201 3201 3201 3201 3201 3202 3202 3202 3202 3202 3202 3202 3201 3201
3158 3158 3158 3158 3159 3160 3161 3162 3162 3163 3164 3165 3165 3165 3165 3165 3166 3166 3166 3166 3165 3165 3164 3165 3166 3167 3168 3169 3171 3172 3173 3175 3176 3177 3178 3179 3179 3179 3180 3181 3181 3182 3182 3182 3182 3182 3183 3183 3183 3184 3185 3185 3186 3187 3187 3189 3190 3190 3190 3191 3192 3193 3194 3195 3196 3196 3197 3198 3198 3198 3199 3199 3199 3199 3200 3200 3200 3201 3201 3201 3201 3201 3201 3201 3200
3157 3157 3157 3157 3158 3160 3161 3162 3162 3162 3163 3163 3163 3163 3164 3164 3164 3165 3165 3165 3164 3164 3163 3164 3165 3166 3167 3168 3169 3171 3172 3173 3175 3176 3177 3177 3178 3178 3179 3180 3181 3181 3181 3181 3181 3181 3182 3182 3182 3182 3183 3184 3184 3185 3186 3187 3188 3188 3189 3189 3190 3191 3192 3193 3193 3194 3195 3196 3196 3197 3197 3197 3197 3198 3198 3198 3198 3199 3199 3199 3200 3200 3200 3200 3199
3156 3157 3156 3156 3157 3159 3160 3160 3161 3161 3162 3162 3162 3163 3163 3163 3163 3164 3164 3164 3164 3164 3163 3163 3164 3165 3166 3167 3168 3169 3171 3172 3173 3174 3175 3175 3176 3176 3177 3179 3180 3180 3180 3180 3180 3180 3181 3182 3181 3181 3182 3182 3183 3184 3184 3185 3186 3187 3187 3187 3188 3189 3190 3190 3191 3192 3193 3193 3194 3195 3195 3196 3196 3196 3197 3197 3197 3197 3198 3198 3198 3198 3198 3198 3198
3155 3156 3156 3156 3157 3158 3158 3159 3160 3160 3161 3161 3162 3162 3162 3162 3163 3163 3163 3164 3164 3164 3163 3164 3164 3165 3165 3166 3167 3168 3169 3170 3170 3171 3173 3173 3174 3175 3176 3177 3179 3179 3180 3180 3180 3180 3180 3181 3180 3180 3180 3181 3182 3182 3183 3184 3184 3185 3185 3186 3186 3186 3187 3188 3189 3190 3190 3191 3192 3193 3194 3194 3194 3195 3195 3195 3196 3196 3196 3196 3197 3197 3197 3196 3196
3155 3155 3156 3156 3157 3157 3158 3158 3159 3159 3160 3160 3161 3161 3161 3162 3162 3162 3162 3163 3163 3163 3163 3163 3164 3165 3165 3165 3166 3167 3168 3168 3169 3169 3171 3172 3173 3174 3175 3176 3177 3178 3178 3179 3179 3179 3179 3179 3179 3178 3178 3179 3179 3180 3181 3182 3182 3183 3184 3184 3184 3184 3185 3185 3186 3187 3188 3189 3190 3191 3192 3192 3192 3193 3193 3193 3194 3194 3194 3195 3195 3195 3195 3195 3195
3154 3155 3155 3156 3156 3156 3157 3157 3158 3158 3159 3159 3160 3160 3161 3161 3162 3162 3162 3162 3162 3162 3162 3163 3163 3164 3165 3165 3166 3166 3167 3168 3169 3169 3170 3171 3172 3173 3174 3174 3175 3176 3176 3177 3177 3177 3177 3177 3177 3176 3177 3177 3177 3178 3179 3179 3180 3181 3182 3182 3183 3183 3183 3184 3184 3185 3185 3186 3187 3188 3189 3190 3190 3191 3191 3191 3192 3192 3192 3193 3193 3193 3193 3193 3193
3152 3153 3154 3155 3155 3156 3156 3157 3157 3157 3158 3158 3159 3159 3160 3160 3161 3161 3161 3161 3161 3161 3162 3162 3163 3164 3165 3165 3166 3166 3167 3168 3168 3168 3169 3170 3171 3172 3172 3173 3173 3174 3174 3174 3174 3174 3174 3174 3174 3175 3175 3176 3176 3176 3177 3177 3178 3178 3179 3180 3180 3181 3182 3182 3183 3183 3184 3184 3185 3186 3187 3187 3188 3188 3189 3189 3190 3190 3190 3190 3191 3191 3191 3191 3191
3151 3151 3152 3153 3154 3154 3155 3155 3155 3156 3156 3156 3157 3158 3158 3159 3160 3160 3161 3161 3161 3161 3161 3162 3162 3163 3164 3165 3165 3165 3166 3166 3167 3167 3168 3169 3170 3171 3171 3171 3171 3171 3171 3172 3171 3171 3171 3171 3172 3173 3174 3174 3175 3175 3175 3175 3176 3176 3177 3177 3178 3178 3179 3180 3181 3182 3182 3183 3183 3184 3185 3185 3186 3186 3187 3187 3188 3188 3188 3188 3189 3189 3189 3189 3189
3150 3150 3151 3151 3152 3153 3153 3153 3154 3154 3154 3155 3156 3156 3157 3158 3158 3159 3160 3160 3160 3161 3161 3161 3162 3162 3163 3163 3164 3164 3165 3165 3166 3166 3167 3167 3168 3168 3168 3168 3167 3167 3168 3169 3169 3169 3169 3170 3170 3171 3172 3173 3173 3173 3173 3173 3174 3174 3175 3175 3175 3175 3176 3177 3178 3179 3180 3180 3181 3182 3182 3183 3184 3184 3185 3185 3186 3186 3186 3187 3186 3186 3187 3187 3187
3150 3150 3151 3151 3152 3152 3152 3153 3153 3153 3154 3154 3155 3155 3156 3157 3158 3158 3159 3159 3159 3160 3160 3161 3161 3161 3162 3162 3162 3163 3163 3164 3164 3164 3164 3164 3165 3165 3165 3165 3165 3165 3165 3166 3167 3167 3168 3168 3169 3170 3170 3171 3171 3171 3171 3171 3171 3171 3172 3173 3173 3173 3174 3174 3175 3176 3177 3177 3178 3179 3180 3180 3181 3181 3182 3183 3183 3184 3184 3184 3184 3184 3184 3185 3185
3149 3150 3151 3151 3152 3152 3152 3153 3153 3153 3154 3154 3155 3155 3155 3156 3157 3157 3157 3158 3158 3158 3159 3160 3160 3160 3160 3161 3161 3161 3161 3161 3161 3161 3161 3161 3162 3162 3162 3162 3162 3163 3163 3164 3164 3165 3165 3166 3167 3167 3168 3168 3169 3169 3169 3168 3169 3169 3170 3170 3171 3171 3172 3172 3173 3173 3174 3174 3175 3176 3177 3177 3178 3179 3180 3180 3181 3181 3182 3182 3182 3182 3182 3182 3182
3149 3150 3150 3151 3151 3152 3152 3153 3153 3153 3154 3154 3154 3155 3155 3155 3156 3156 3156 3157 3157 3157 3158 3158 3158 3158 3159 3159 3159 3159 3159 3159 3159 3159 3159 3159 3160 3160 3160 3160 3160 3161 3161 3161 3162 3162 3163 3163 3164 3164 3165 3165 3166 3166 3166 3166 3166 3167 3167 3167 3168 3169 3169 3170 3170 3171 3171 3172 3172 3173 3174 3175 3176 3177 3177 3178 3178 3179 3179 3179 3179 3179 3180 3179 3179
3148 3149 3150 3150 3151 3152 3152 3152 3153 3153 3153 3153 3154 3154 3155 3155 3155 3156 3156 3156 3157 3157 3157 3157 3157 3157 3157 3157 3158 3158 3158 3158 3158 3158 3158 3158 3158 3158 3158 3158 3158 3158 3159 3159 3159 3160 3160 3160 3161 3161 3162 3162 3163 3163 3164 3164 3164 3164 3164 3165 3165 3166 3167 3167 3167 3168 3169 3169 3169 3170 3171 3172 3173 3174 3174 3175 3175 3176 3176 3177 3177 3177 3177 3177 3177
3147 3148 3149 3150 3151 3152 3152 3152 3153 3153 3153 3153 3153 3154 3154 3155 3155 3155 3156 3156 3156 3157 3157 3157 3157 3157 3157 3157 3157 3157 3157 3157 3157 3156 3157 3157 3157 3157 3157 3157 3157 3157 3157 3157 3157 3157 3158 3158 3158 3158 3159 3160 3160 3160 3161 3161 3161 3161 3162 3162 3163 3163 3164 3164 3165 3165 3165 3165 3166 3168 3169 3169 3170 3170 3171 3171 3172 3173 3173 3173 3173 3174 3174 3174 3174
3147 3148 3149 3150 3151 3152 3153 3153 3153 3153 3154 3154 3154 3154 3154 3155 3155 3155 3155 3156 3156 3156 3156 3157 3157 3157 3157 3156 3156 3156 3156 3155 3155 3155 3155 3155 3155 3155 3155 3155 3155 3155 3155 3155 3155 3155 3155 3155 3156 3156 3156 3156 3157 3157 3157 3157 3157 3158 3158 3159 3159 3160 3160 3161 3161 3161 3161 3162 3165 3166 3166 3166 3167 3167 3167 3168 3169 3169 3169 3170 3170 3170 3170 3171 3171
3147 3148 3149 3149 3150 3151 3152 3153 3153 3154 3154 3154 3154 3154 3154 3154 3155 3155 3155 3155 3155 3155 3155 3156 3156 3156 3156 3156 3155 3155 3155 3154 3154 3154 3154 3154 3154 3154 3154 3153 3153 3153 3153 3153 3153 3153 3153 3153 3153 3153 3153 3153 3153 3153 3153 3154 3154 3154 3155 3155 3156 3156 3157 3157 3157 3157 3158 3161 3163 3162 3162 3162 3163 3164 3164 3165 3165 3165 3165 3166 3166 3166 3167 3167 3168
3146 3148 3149 3149 3149 3150 3151 3152 3153 3153 3154 3154 3154 3154 3154 3154 3154 3154 3155 3155 3155 3155 3154 3154 3154 3154 3154 3154 3154 3154 3154 3153 3153 3153 3152 3152 3152 3152 3152 3151 3151 3151 3151 3151 3150 3150 3150 3150 3150 3150 3150 3150 3150 3150 3150 3150 3150 3150 3151 3152 3152 3153 3154 3154 3153 3154 3156 3158 3158 3158 3158 3159 3160 3160 3161 3161 3161 3162 3162 3162 3162 3162 3163 3164 3164
3146 3147 3148 3149 3149 3150 3150 3152 3152 3153 3153 3153 3153 3154 3154 3154 3154 3154 3154 3154 3154 3154 3154 3154 3153 3153 3153 3153 3153 3153 3152 3152 3152 3151 3151 3151 3150 3150 3150 3149 3149 3149 3148 3148 3148 3147 3147 3147 3147 3147 3146 3146 3146 3146 3146 3146 3146 3146 3146 3147 3148 3149 3150 3150 3150 3151 3153 3154 3153 3153 3155 3156 3156 3156 3157 3157 3158 3158 3158 3158 3158 3158 3159 3160 3161
3144 3145 3146 3147 3148 3149 3149 3151 3151 3152 3152 3152 3152 3153 3153 3153 3153 3153 3153 3154 3154 3153 3153 3153 3153 3152 3152 3151 3151 3151 3151 3150 3150 3150 3149 3149 3149 3148 3148 3147 3147 3146 3146 3145 3145 3145 3144 3144 3144 3143 3143 3143 3143 3143 3142 3142 3142 3142 3142 3143 3144 3145 3145 3146 3146 3147 3149 3150 3149 3150 3151 3151 3152 3152 3153 3153 3154 3154 3154 3154 3154 3155 3155 3156 3157
3144 3145 3145 3146 3147 3148 3148 3149 3150 3150 3151 3151 3151 3151 3152 3152 3152 3153 3153 3153 3153 3153 3152 3152 3152 3151 3151 3150 3150 3149 3149 3149 3149 3148 3148 3147 3147 3146 3146 3145 3145 3144 3144 3143 3142 3142 3142 3141 3141 3140 3139 3139 3139 3139 3139 3139 3139 3138 3139 3139 3139 3140 3141 3142 3142 3143 3144 3145 3146 3146 3147 3147 3148 3148 3149 3149 3149 3149 3150 3150 3150 3151 3151 3152 3152
3142 3143 3144 3145 3146 3147 3147 3148 3149 3149 3150 3150 3150 3150 3150 3151 3151 3151 3152 3151 3151 3151 3151 3151 3150 3150 3149 3149 3148 3148 3148 3147 3147 3147 3146 3146 3145 3145 3144 3144 3143 3142 3141 3141 3140 3140 3139 3139 3138 3137 3136 3136 3136 3136 3135 3135 3135 3135 3135 3135 3136 3136 3137 3137 3138 3139 3140 3141 3142 3142 3143 3143 3144 3144 3144 3145 3145 3145 3146 3146 3146 3147 3147 3148 3148
3141 3142 3143 3144 3145 3146 3147 3147 3148 3148 3148 3149 3148 3148 3149 3149 3150 3150 3150 3150 3150 3150 3150 3149 3149 3148 3148 3148 3147 3147 3146 3146 3146 3145 3145 3144 3144 3143 3142 3142 3141 3140 3139 3139 3138 3137 3137 3136 3135 3134 3134 3133 3133 3132 3131 3131 3131 3132 3132 3132 3133 3133 3133 3134 3135 3135 3135 3136 3137 3138 3138 3139 3139 3140 3140 3141 3141 3142 3142 3142 3143 3143 3143 3144 3144
3141 3141 3142 3143 3144 3145 3146 3146 3146 3147 3148 3148 3148 3148 3148 3148 3148 3149 3149 3149 3149 3148 3148 3148 3148 3147 3147 3146 3146 3146 3145 3145 3144 3144 3143 3142 3142 3141 3140 3140 3139 3138 3137 3136 3135 3135 3134 3133 3132 3131 3131 3130 3129 3128 3128 3127 3127 3128 3128 3128 3129 3129 3130 3130 3131 3131 3132 3132 3133 3134 3134 3135 3135 3136 3137 3137 3138 3138 3139 3139 3139 3139 3139 3139 3139
3139 3140 3141 3142 3143 3144 3145 3146 3146 3147 3148 3147 3147 3147 3147 3147 3147 3147 3147 3147 3147 3147 3147 3146 3146 3146 3145 3145 3144 3144 3144 3143 3143 3142 3141 3141 3140 3139 3138 3137 3136 3135 3134 3133 3132 3131 3131 3130 3129 3128 3127 3126 3125 3125 3124 3123 3123 3123 3124 3124 3125 3126 3126 3127 3127 3128 3129 3129 3130 3130 3131 3131 3132 3132 3133 3134 3134 3135 3135 3135 3135 3135 3135 3135 3135
3136 3137 3138 3140 3141 3143 3144 3146 3146 3147 3147 3147 3147 3147 3146 3147 3146 3146 3146 3146 3146 3145 3145 3145 3144 3144 3144 3143 3143 3143 3142 3142 3141 3141 3140 3139 3138 3137 3136 3135 3134 3133 3132 3131 3130 3129 3128 3127 3126 3125 3124 3123 3122 3121 3121 3120 3119 3120 3120 3121 3121 3122 3122 3123 3124 3125 3125 3126 3127 3127 3127 3128 3129 3129 3130 3131 3131 3131 3131 3131 3131 3131 3131 3131 3131
3133 3134 3134 3135 3137 3139 3141 3143 3145 3146 3147 3147 3147 3146 3146 3146 3146 3146 3145 3145 3144 3144 3144 3143 3143 3142 3142 3142 3142 3141 3141 3141 3141 3140 3139 3138 3137 3136 3135 3134 3133 3132 3131 3130 3128 3127 3126 3125 3124 3123 3122 3120 3119 3118 3117 3117 3117 3117 3117 3117 3118 3118 3119 3119 3120 3121 3122 3122 3123 3124 3124 3125 3126 3127 3127 3128 3128 3127 3127 3128 3128 3128 3128 3128 3128
3131 3132 3132 3132 3133 3135 3137 3139 3142 3145 3147 3146 3146 3146 3146 3145 3145 3145 3145 3144 3144 3143 3142 3142 3141 3141 3141 3140 3140 3140 3140 3141 3140 3139 3138 3137 3136 3135 3134 3132 3131 3130 3129 3128 3127 3126 3124 3123 3122 3121 3119 3118 3117 3116 3115 3115 3114 3114 3114 3115 3115 3115 3116 3116 3117 3118 3119 3119 3120 3121 3122 3123 3123 3124 3124 3124 3124 3124 3124 3124 3124 3124 3125 3125 3125
3129 3130 3130 3130 3131 3134 3138 3139 3140 3142 3145 3146 3145 3145 3145 3145 3145 3145 3144 3143 3142 3142 3141 3140 3140 3140 3139 3139 3139 3140 3140 3140 3139 3138 3137 3136 3135 3134 3133 3132 3130 3129 3128 3127 3126 3124 3123 3122 3120 3119 3118 3117 3116 3115 3114 3113 3113 3112 3112 3113 3113 3113 3113 3114 3114 3115 3116 3117 3118 3119 3119 3120 3120 3121 3121 3121 3121 3121 3121 3121 3121 3121 3121 3122 3122
3126 3126 3127 3128 3129 3132 3136 3138 3138 3139 3141 3143 3144 3144 3144 3144 3144 3143 3143 3142 3141 3140 3140 3139 3139 3139 3138 3138 3139 3139 3139 3139 3138 3137 3136 3135 3134 3133 3132 3131 3130 3129 3127 3126 3125 3124 3122 3121 3120 3119 3117 3116 3115 3114 3113 3112 3112 3111 3111 3111 3111 3111 3112 3112 3113 3114 3115 3115 3116 3116 3117 3117 3118 3118 3118 3118 3118 3118 3118 3119 3119 3119 3119 3119 3119
3123 3123 3124 3125 3126 3127 3130 3134 3137 3138 3138 3138 3140 3141 3142 3142 3142 3141 3141 3140 3140 3139 3138 3138 3138 3138 3137 3137 3137 3138 3138 3138 3137 3136 3135 3134 3133 3132 3131 3130 3129 3128 3127 3126 3125 3124 3122 3121 3120 3119 3117 3116 3115 3114 3113 3112 3112 3111 3111 3111 3111 3111 3111 3111 3112 3113 3113 3114 3114 3115 3115 3116 3116 3116 3116 3116 3116 3116 3116 3116 3116 3116 3116 3116 3116